ZHONGXING-19

Last updated on Sat Oct 25 2025 00:02:53 GMT+0000 (Coordinated Universal Time)

1 54230U 22148A 25297.73469316 -.00000067 00000+0 00000+0 0 9997 2 54230 0.0238 259.0589 0007754 332.4744 229.7601 1.00271797 11022
UTC large
Height (km)
Speed (km/s)
/
Latitude / Longitude
Inclination (degrees)
Orbital Period (minutes)
Azimuth
Elevation
Range (km)
Doppler Factor

Next 0 passes for location: London (51.5072 / 0.1276)

Sorry there are no passes over London.